Location: Mactaquac Provincial Park
(45.9573°N, 66.8897°W)
Time: 08:28:27
(UTC-04:00)

CENTAUR R/B - Visible Passes

Search period start: 07 December 2016 00:00
Search period end: 17 December 2016 00:00
Orbit: 842 x 1346 km, 63.5° (Epoch: 06 December)

Date Brightness Start Highest point End Pass type
(mag) Time Alt. Az. Time Alt. Az. Time Alt. Az.
07 Dec 5.2 02:53:14 12° ENE 02:53:14 12° ENE 02:53:53 10° ENE visible
07 Dec 3.0 04:40:27 53° NNE 04:40:27 53° NNE 04:45:49 10° NE visible
07 Dec 3.7 06:27:39 20° WNW 06:30:40 27° NNW 06:36:43 10° NNE visible
08 Dec 4.1 03:54:07 30° NE 03:54:07 30° NE 03:57:27 10° NE visible
08 Dec 3.3 05:41:20 34° NW 05:41:51 35° NNW 05:48:22 10° NNE visible
09 Dec 5.0 03:07:44 15° NE 03:07:44 15° NE 03:08:57 10° NE visible
09 Dec 3.4 04:54:56 40° N 04:54:56 40° N 05:00:05 10° NNE visible
09 Dec 4.1 06:42:08 15° NW 06:45:48 22° NNW 06:51:20 10° NE visible
10 Dec 4.1 04:08:29 29° NNE 04:08:29 29° NNE 04:11:48 10° NE visible
10 Dec 3.7 05:55:41 25° NW 05:56:48 26° NNW 06:02:45 10° NNE visible
11 Dec 4.9 03:21:58 17° NE 03:21:58 17° NE 03:23:29 10° NE visible
11 Dec 3.7 05:09:10 31° N 05:09:10 31° N 05:14:21 10° NNE visible
11 Dec 4.3 06:56:21 11° NW 07:01:05 20° N 07:06:23 10° NE visible
12 Dec 4.1 04:22:37 27° NNE 04:22:37 27° NNE 04:26:04 10° NNE visible
12 Dec 4.1 06:09:48 18° NW 06:11:58 21° NNW 06:17:27 10° NE visible
13 Dec 4.8 03:36:02 18° NNE 03:36:02 18° NNE 03:37:48 10° NE visible
13 Dec 4.0 05:23:14 24° NNW 05:23:14 24° NNW 05:28:48 10° NNE visible
13 Dec 4.4 07:11:15 10° NW 07:16:25 20° N 07:21:57 10° NE visible
14 Dec 5.4 02:49:27 10° NE 02:49:27 10° NE 02:49:29 10° NE visible
14 Dec 4.2 04:36:38 24° N 04:36:38 24° N 04:40:23 10° NNE visible
14 Dec 4.3 06:23:49 14° NW 06:27:16 20° N 06:32:36 10° NE visible
15 Dec 4.7 03:50:00 19° NNE 03:50:00 19° NNE 03:52:04 10° NNE visible
15 Dec 4.2 05:37:11 20° NNW 05:38:10 21° N 05:43:35 10° NE visible
15 Dec 4.4 07:25:56 10° NNW 07:31:40 24° NNE 07:37:50 10° ENE visible
16 Dec 5.3 03:03:21 12° NE 03:03:21 12° NE 03:03:48 10° NE visible
16 Dec 4.3 04:50:32 22° N 04:50:32 22° N 04:54:52 10° NNE visible
16 Dec 4.5 06:37:43 11° NW 06:42:36 21° N 06:48:14 10° ENE visible
